Regional Weather Roundup
Issued by NWS Kansas City/Pleasant Hill, MO

Home | Current Version | Previous Version | Text Only | Print | Product List | Glossary On
Versions: 1 2 3 4 5 6 7 8 9 10 11 12 13 14 15 16 17 18 19 20 21 22 23 24 25 26 27 28 29 30 31 32 33 34 35 36 37 38 39 40 41 42 43 44 45 46 47 48 49 50
000
ASUS43 KEAX 270811
RWREAX

WEATHER ROUNDUP FOR EASTERN KANSAS AND NORTHWEST MISSOURI
NATIONAL WEATHER SERVICE KANSAS CITY/PLEASANT HILL MO
300 AM CDT FRI MAR 27 2015

KSZ040-057-103>105-MOZ028-029-037-043-270900-
...KANSAS CITY METROPOLITAN AREA...

CITY           SKY/WX    TMP DP  RH WIND       PRES   REMARKS
K.C. INTL      CLOUDY    36  33  89 N14       30.16S WCI  27
K.C. DOWNTOWN  CLOUDY    39  33  79 N10       30.16S WCI  32
LEES SUMMIT    CLOUDY    37  33  85 N14       30.15S WCI  28
OLATHE - IXD   CLOUDY    36  34  92 N14       30.16S WCI  27
OLATHE - OJC   CLOUDY    37  35  92 N9        30.14S WCI  30
LAWRENCE       CLOUDY    37  33  85 N8        30.18R WCI  31

$$

MOZ001>008-011>017-020>025-030>033-038>040-044>046-053-054-270900-
...NORTHERN AND CENTRAL MISSOURI...

CITY           SKY/WX    TMP DP  RH WIND       PRES   REMARKS
ST. JOSEPH     CLOUDY    36  32  85 N9        30.19S WCI  29
MOSBY          CLOUDY    36  32  87 N10       30.17S WCI  28
WARRENSBURG    CLOUDY    37  32  81 N9        30.14F WCI  31
WHITEMAN AFB   CLOUDY    38  32  78 N13       30.12R WCI  31
CLINTON        CLOUDY    39  36  87 N6        30.13S WCI  35
SEDALIA        CLOUDY    39  32  76 N13       30.12S WCI  31
WARSAW         NOT AVBL
CHILLICOTHE      N/A     36  33  89 N7        30.17S WCI  30
KIRKSVILLE     CLOUDY    34  25  69 N8        30.14S WCI  27

$$

MOZ041-047>049-056>058-063>065-088>090-097-270900-
...EASTERN AND SOUTHERN MISSOURI...

CITY           SKY/WX    TMP DP  RH WIND       PRES   REMARKS
ST. LOUIS INTL CLOUDY    40  25  55 N13       30.08R WCI  32
SPIRIT OF STL  CLOUDY    39  27  62 N10       30.08R WCI  32
COLUMBIA       CLOUDY    37  31  78 N16       30.10S WCI  28
JEFFERSON CITY CLOUDY    40  29  64 N8        30.11R WCI  34
MEXICO         CLOUDY    37  32  81 N13       30.11R WCI  29
ROLLA          CLOUDY    38  29  70 MISG      30.05R
LEBANON        CLOUDY    41  32  70 NW5       30.07F
OSAGE BEACH    CLOUDY    41  30  65 N7        30.08S
SPRINGFIELD    LGT RAIN  39  35  86 NW9       30.08F WCI  33
BRANSON        CLOUDY    39  34  81 CALM      30.08F
NEVADA         CLOUDY    39  37  93 NW5       30.13S
JOPLIN         CLOUDY    40  37  89 NE10      30.11S WCI  33
WEST PLAINS    CLOUDY    40  29  64 MISG      30.06F

$$

IAZ060-094-KSZ022-034>040-054-083-096-NEZ052-066-093-270900-
...KANSAS...SOUTHEAST NEBRASKA AND IOWA...

CITY           SKY/WX    TMP DP  RH WIND       PRES   REMARKS
TOPEKA         CLOUDY    36  33  89 N8        30.19S WCI  30
MANHATTAN      CLOUDY    36  33  89 N9        30.20S WCI  29
EMPORIA        CLOUDY    37  35  92 NE12      30.15R FOG     WCI  29
CHANUTE        CLOUDY    41  37  86 NE9       30.12S
WICHITA        MOCLDY    42  35  76 NE22G30   30.11R WCI  33
OMAHA          PTCLDY    29  23  78 N10       30.24R WCI  20
LINCOLN        CLEAR     29  26  89 N13       30.24R WCI  19
FALLS CITY     CLEAR     31  29  92 NW6       30.20R WCI  25
LAMONI         PTCLDY    30  24  78 N9        30.17R WCI  22
DES MOINES     CLOUDY    32  19  58 N13       30.19S WCI  22

$$




USA.gov is the U.S. government's official web portal to all federal, state and local government web resources and services.